Index of /20260419/WXO-DD/model_gdps/15km/12/049
Name Last modified Size Description
Parent Directory -
20260419T12Z_MSC_GDPS_AirTemp_AGL-120m_LatLon0.15_PT049H.grib2 2026-04-19 15:59 910K
20260419T12Z_MSC_GDPS_AirTemp_AGL-2m_LatLon0.15_PT049H.grib2 2026-04-19 15:59 1.0M
20260419T12Z_MSC_GDPS_AirTemp_AGL-40m_LatLon0.15_PT049H.grib2 2026-04-19 15:59 929K
20260419T12Z_MSC_GDPS_AirTemp_AGL-80m_LatLon0.15_PT049H.grib2 2026-04-19 15:59 919K
20260419T12Z_MSC_GDPS_Albedo_Sfc_LatLon0.15_PT049H.grib2 2026-04-19 15:59 247K
20260419T12Z_MSC_GDPS_ConvectivePrecip-Accum_Sfc_LatLon0.15_PT049H.grib2 2026-04-19 15:59 2.7M
20260419T12Z_MSC_GDPS_DewPointDepression_AGL-2m_LatLon0.15_PT049H.grib2 2026-04-19 15:59 750K
20260419T12Z_MSC_GDPS_DewPoint_AGL-2m_LatLon0.15_PT049H.grib2 2026-04-19 15:59 613K
20260419T12Z_MSC_GDPS_DownwardLongwaveRadiationFlux-Accum_Sfc_LatLon0.15_PT049H.grib2 2026-04-19 15:59 788K
20260419T12Z_MSC_GDPS_DownwardShortwaveRadiationFlux-Accum_Sfc_LatLon0.15_PT049H.grib2 2026-04-19 15:59 1.0M
20260419T12Z_MSC_GDPS_FreezingRain-Accum1h_Sfc_LatLon0.15_PT049H.grib2 2026-04-19 15:59 32K
20260419T12Z_MSC_GDPS_FreezingRain-Accum_Sfc_LatLon0.15_PT049H.grib2 2026-04-19 15:59 198K
20260419T12Z_MSC_GDPS_IcePellets-Accum1h_Sfc_LatLon0.15_PT049H.grib2 2026-04-19 15:59 9.7K
20260419T12Z_MSC_GDPS_IcePellets-Accum_Sfc_LatLon0.15_PT049H.grib2 2026-04-19 15:59 65K
20260419T12Z_MSC_GDPS_LatentHeatNetFlux_Sfc_LatLon0.15_PT049H.grib2 2026-04-19 15:59 541K
20260419T12Z_MSC_GDPS_NetLongwaveRadiationFlux-Accum_Sfc_LatLon0.15_PT049H.grib2 2026-04-19 15:59 1.1M
20260419T12Z_MSC_GDPS_NetShortwaveRadiationFlux-Accum_Sfc_LatLon0.15_PT049H.grib2 2026-04-19 15:59 1.0M
20260419T12Z_MSC_GDPS_O3MixingRatio_LatLon0.15_PT049H.grib2 2026-04-19 16:49 2.3M
20260419T12Z_MSC_GDPS_O3_EAtm_LatLon0.15_PT049H.grib2 2026-04-19 16:49 2.1M
20260419T12Z_MSC_GDPS_PlanetaryBoundaryLayerHeight_Sfc_LatLon0.15_PT049H.grib2 2026-04-19 15:59 2.5M
20260419T12Z_MSC_GDPS_Precip-Accum1h_Sfc_LatLon0.15_PT049H.grib2 2026-04-19 15:59 3.2M
20260419T12Z_MSC_GDPS_Precip-Accum_Sfc_LatLon0.15_PT049H.grib2 2026-04-19 15:59 4.9M
20260419T12Z_MSC_GDPS_PrecipRate_Sfc_LatLon0.15_PT049H.grib2 2026-04-19 15:59 3.1M
20260419T12Z_MSC_GDPS_Pressure_MSL_LatLon0.15_PT049H.grib2 2026-04-19 15:59 722K
20260419T12Z_MSC_GDPS_Pressure_Sfc_LatLon0.15_PT049H.grib2 2026-04-19 15:59 1.1M
20260419T12Z_MSC_GDPS_RadiativeTemp_Sfc_LatLon0.15_PT049H.grib2 2026-04-19 15:59 499K
20260419T12Z_MSC_GDPS_Rain-Accum1h_Sfc_LatLon0.15_PT049H.grib2 2026-04-19 15:59 1.6M
20260419T12Z_MSC_GDPS_Rain-Accum_Sfc_LatLon0.15_PT049H.grib2 2026-04-19 15:59 3.6M
20260419T12Z_MSC_GDPS_RelativeHumidity_AGL-2m_LatLon0.15_PT049H.grib2 2026-04-19 15:59 1.1M
20260419T12Z_MSC_GDPS_Runoff-Accum_Sfc_LatLon0.15_PT049H.grib2 2026-04-19 15:59 107K
20260419T12Z_MSC_GDPS_SensibleHeatNetFlux_Sfc_LatLon0.15_PT049H.grib2 2026-04-19 15:59 481K
20260419T12Z_MSC_GDPS_Snow-Accum1h_Sfc_LatLon0.15_PT049H.grib2 2026-04-19 15:59 1.0M
20260419T12Z_MSC_GDPS_Snow-Accum_Sfc_LatLon0.15_PT049H.grib2 2026-04-19 15:59 1.8M
20260419T12Z_MSC_GDPS_SnowDepth_Sfc_LatLon0.15_PT049H.grib2 2026-04-19 15:59 1.8M
20260419T12Z_MSC_GDPS_SoilTemp_DBS-0to10cm_LatLon0.15_PT049H.grib2 2026-04-19 15:59 504K
20260419T12Z_MSC_GDPS_SoilTemp_Sfc_LatLon0.15_PT049H.grib2 2026-04-19 15:59 578K
20260419T12Z_MSC_GDPS_SoilVolumetricWaterContent_DBS-0to10cm_LatLon0.15_PT049H.grib2 2026-04-19 15:59 557K
20260419T12Z_MSC_GDPS_SoilVolumetricWaterContent_DBS-0to1cm_LatLon0.15_PT049H.grib2 2026-04-19 15:59 646K
20260419T12Z_MSC_GDPS_SpecificHumidity_AGL-120m_LatLon0.15_PT049H.grib2 2026-04-19 15:59 1.1M
20260419T12Z_MSC_GDPS_SpecificHumidity_AGL-2m_LatLon0.15_PT049H.grib2 2026-04-19 15:59 1.2M
20260419T12Z_MSC_GDPS_SpecificHumidity_AGL-40m_LatLon0.15_PT049H.grib2 2026-04-19 15:59 1.1M
20260419T12Z_MSC_GDPS_SpecificHumidity_AGL-80m_LatLon0.15_PT049H.grib2 2026-04-19 15:59 1.1M
20260419T12Z_MSC_GDPS_SpecificHumidity_Sfc_LatLon0.15_PT049H.grib2 2026-04-19 15:59 673K
20260419T12Z_MSC_GDPS_TotalCloudCover_Sfc_LatLon0.15_PT049H.grib2 2026-04-19 15:59 829K
20260419T12Z_MSC_GDPS_UVIndex-ClearSky_Sfc_LatLon0.15_PT049H.grib2 2026-04-19 16:49 1.0M
20260419T12Z_MSC_GDPS_UVIndex_Sfc_LatLon0.15_PT049H.grib2 2026-04-19 16:49 1.4M
20260419T12Z_MSC_GDPS_UpwardLongwaveRadiationFlux_NTAtm_LatLon0.15_PT049H.grib2 2026-04-19 15:59 843K
20260419T12Z_MSC_GDPS_WindDir_AGL-10m_LatLon0.15_PT049H.grib2 2026-04-19 15:59 1.3M
20260419T12Z_MSC_GDPS_WindDir_AGL-120m_LatLon0.15_PT049H.grib2 2026-04-19 15:59 1.4M
20260419T12Z_MSC_GDPS_WindDir_AGL-40m_LatLon0.15_PT049H.grib2 2026-04-19 15:59 1.4M
20260419T12Z_MSC_GDPS_WindDir_AGL-80m_LatLon0.15_PT049H.grib2 2026-04-19 15:59 1.4M
20260419T12Z_MSC_GDPS_WindDir_IsbL-0700_LatLon0.15_PT049H.grib2 2026-04-19 15:59 1.6M
20260419T12Z_MSC_GDPS_WindGust-Max_AGL-10m_LatLon0.15_PT049H.grib2 2026-04-19 15:59 2.2M
20260419T12Z_MSC_GDPS_WindGust-Min_AGL-10m_LatLon0.15_PT049H.grib2 2026-04-19 15:59 2.2M
20260419T12Z_MSC_GDPS_WindGust_AGL-10m_LatLon0.15_PT049H.grib2 2026-04-19 15:59 2.2M
20260419T12Z_MSC_GDPS_WindSpeed_AGL-10m_LatLon0.15_PT049H.grib2 2026-04-19 15:59 1.1M
20260419T12Z_MSC_GDPS_WindSpeed_AGL-120m_LatLon0.15_PT049H.grib2 2026-04-19 15:59 1.2M
20260419T12Z_MSC_GDPS_WindSpeed_AGL-40m_LatLon0.15_PT049H.grib2 2026-04-19 15:59 1.2M
20260419T12Z_MSC_GDPS_WindSpeed_AGL-80m_LatLon0.15_PT049H.grib2 2026-04-19 15:59 1.2M
20260419T12Z_MSC_GDPS_WindSpeed_IsbL-0700_LatLon0.15_PT049H.grib2 2026-04-19 15:59 1.5M
20260419T12Z_MSC_GDPS_WindU_AGL-10m_LatLon0.15_PT049H.grib2 2026-04-19 15:59 1.6M
20260419T12Z_MSC_GDPS_WindU_AGL-120m_LatLon0.15_PT049H.grib2 2026-04-19 15:59 967K
20260419T12Z_MSC_GDPS_WindU_AGL-40m_LatLon0.15_PT049H.grib2 2026-04-19 15:59 965K
20260419T12Z_MSC_GDPS_WindU_AGL-80m_LatLon0.15_PT049H.grib2 2026-04-19 15:59 969K
20260419T12Z_MSC_GDPS_WindU_IsbL-0700_LatLon0.15_PT049H.grib2 2026-04-19 15:59 1.2M
20260419T12Z_MSC_GDPS_WindV_AGL-10m_LatLon0.15_PT049H.grib2 2026-04-19 15:59 1.6M
20260419T12Z_MSC_GDPS_WindV_AGL-120m_LatLon0.15_PT049H.grib2 2026-04-19 15:59 970K
20260419T12Z_MSC_GDPS_WindV_AGL-40m_LatLon0.15_PT049H.grib2 2026-04-19 15:59 967K
20260419T12Z_MSC_GDPS_WindV_AGL-80m_LatLon0.15_PT049H.grib2 2026-04-19 15:59 971K
20260419T12Z_MSC_GDPS_WindV_IsbL-0700_LatLon0.15_PT049H.grib2 2026-04-19 15:59 1.2M